Flag for U.S.A. Weather past 2 weeks in Thousand Oaks, California, U.S.A.

Now
55 °F

Clear.


Feels Like: 55 °F
Forecast: 57 / 76 °F
Wind: No wind

Location: Camarillo Airport

Current Time: Oct 21, 2014 at 7:53:11 AM

Latest Report: Oct 21, 2014 at 6:55 AM


Visibility: 10 mi

Pressure: 29.93 "Hg

Humidity: 87%

Dew point: 51 °F

Location of Thousand OaksLocation

Historic Weather in Thousand Oaks — Graph

°F

Thousand Oaks temperature yesterday

Maximum temperature yesterday: 74 °F (at 2:55 PM)
Minimum temperature yesterday: 60 °F (at 11:55 PM)
Average temperature yesterday: 67 °F

Past Weeks' High & Low Weather Summary

 TemperatureHumidityPressure
High81 °F (Oct 6, 2:55 PM)97% (Oct 6, 10:55 PM)30.04 "Hg (Oct 6, 10:55 PM)
Low53 °F (Oct 18, 5:55 AM)33% (Oct 6, 9:55 AM)29.82 "Hg (Oct 8, 4:55 PM)
Average67 °F74%29.94 "Hg
* Reported Oct 6 5:55 AM — Oct 21 5:55 AM, Thousand Oaks, Weather by CustomWeather, © 2014

Note: Actual official high and low records may vary slightly from our data, if they occured in-between our weather recording intervals... More about our weather records

Advertising

Thousand Oaks weather history for previous 24 hours

 ConditionsComfort  
Time TempWeatherWind HumidityBarometerVisibility
5:55 AM
Oct 21
55 °FClear.No wind87%29.91 "Hg10 mi
4:55 AM57 °FClear.6 mph83%29.90 "Hg10 mi
3:55 AM58 °FClear.3 mph84%29.91 "Hg10 mi
2:55 AM58 °FClear.No wind84%29.91 "Hg10 mi
1:55 AM61 °FClear.No wind81%29.91 "Hg10 mi
12:55 AM60 °FClear.5 mph83%29.91 "Hg10 mi
11:55 PM
Oct 20
60 °FClear.3 mph86%29.92 "Hg10 mi
10:55 PM61 °FClear.3 mph83%29.92 "Hg10 mi
9:55 PM63 °FClear.6 mph84%29.91 "Hg10 mi
8:55 PM65 °FClear.7 mph81%29.90 "Hg10 mi
7:55 PM66 °FClear.5 mph81%29.90 "Hg10 mi
6:55 PM68 °FSunny.3 mph76%29.90 "Hg10 mi
5:55 PM69 °FSunny.5 mph73%29.89 "Hg10 mi
4:55 PM71 °FSunny.6 mph68%29.89 "Hg10 mi
3:55 PM73 °FSunny.12 mph64%29.91 "Hg10 mi
2:55 PM74 °FSunny.8 mph60%29.91 "Hg10 mi
1:55 PM73 °FSunny.9 mph64%29.92 "Hg10 mi
12:55 PM73 °FScattered clouds.9 mph64%29.94 "Hg10 mi
11:55 AM71 °FScattered clouds.7 mph68%29.96 "Hg10 mi
10:55 AM71 °FScattered clouds.3 mph68%29.97 "Hg10 mi
9:55 AM66 °FSunny.5 mph78%29.97 "Hg10 mi
8:55 AM64 °FScattered clouds.7 mph84%29.96 "Hg8 mi
7:55 AM63 °FFog.9 mph87%29.94 "Hg6 mi
Weather by CustomWeather, © 2014

See weather overviewHow to use our weather pages